Weather History for La Ceiba, Honduras

Change the Weather History Date:

Monday, January 28, 2013

  Actual Average Record
Temperature  
Mean Temperature 73 °F -  
Max Temperature 82 °F 80 °F 84 °F (2002)
Min Temperature 64 °F 66 °F 60 °F (2000)
Cooling Degree Days 8    
Growing Degree Days 23 (Base 50)    
Moisture  
Dew Point 70 °F    
Average Humidity 80    
Maximum Humidity 96    
Minimum Humidity 65    
Precipitation  
Precipitation 0.00 in 0.43 in - ()
Sea Level Pressure  
Sea Level Pressure 30.03 in    
Wind  
Wind Speed 3 mph ()    
Max Wind Speed 12 mph    
Max Gust Speed -    
Visibility 7.3 miles    
Events      
Averages and records for this station are not official NWS values.
T = Trace of Precipitation, MM = Missing Value Source: Averaged Metar Reports

Daily Weather History Graph

Daily Weather History Graph

Search for Another Location

Airport:

Trip Planner

Search our weather history database for the weather conditions in past years. The results will help you decide how hot, cold, wet, or windy it might be!

Date:

Astronomy

Jan. 28, 2013 Rise Set
Actual Time 6:17 AM CST 5:43 PM CST
Civil Twilight 5:55 AM CST 6:05 PM CST
Nautical Twilight 5:29 AM CST 6:31 PM CST
Astronomical Twilight 5:03 AM CST 6:57 PM CST
Moon 7:11 PM CST (1/28) 7:04 AM CST (1/28)
Length of Visible Light 12h 10m
Length of Day
11h 25m
Full, 98% of the Moon is Illuminated
Jan 28
Full
Feb 3
Last Quarter
Feb 10
New
Feb 17
First Quarter
Feb 25
Full

Hourly Weather History & Observations

Time (CST) Temp. Heat Index Dew Point Humidity Pressure Visibility Wind Dir Wind Speed Gust Speed Precip Events Conditions
12:00 AM 71 °F - 68 °F 89% 30.04 in 6 mi Calm Calm - -   Haze
12:00 AM 69.8 °F - 68.0 °F 94% 30.04 in 6.2 mi Calm Calm - N/A   Partly Cloudy
6:00 AM 65 °F - 64 °F 96% 30.05 in 12 mi Calm Calm - -   Haze
6:00 AM 66.2 °F - 64.4 °F 94% 30.04 in 6.2 mi Calm Calm - N/A   Partly Cloudy
7:00 AM 66.2 °F - 64.4 °F 94% 30.04 in 6.2 mi Calm Calm - N/A   Partly Cloudy
8:00 AM 71.6 °F - 68.0 °F 88% 30.06 in 6.2 mi Calm Calm - N/A   Partly Cloudy
9:00 AM 80 °F - 71 °F 66% 30.08 in 12 mi Calm Calm - -   Haze
9:00 AM 78.8 °F - 71.6 °F 78% 30.06 in 6.2 mi Calm Calm - N/A   Partly Cloudy
10:00 AM 82.4 °F 87.2 °F 71.6 °F 70% 30.06 in 6.2 mi Calm Calm - N/A   Partly Cloudy
11:00 AM 80.6 °F 84.6 °F 71.6 °F 74% 30.04 in 6.2 mi North 4.6 mph - N/A   Partly Cloudy
12:00 PM 81 °F - 72 °F 67% 30.05 in 12 mi NNE 6.9 mph - -   Haze
12:00 PM 80.6 °F 84.6 °F 71.6 °F 74% 30.04 in 6.2 mi NNE 6.9 mph - N/A   Scattered Clouds
1:00 PM 82.4 °F 87.2 °F 71.6 °F 70% 30.01 in 6.2 mi NW 4.6 mph - N/A   Partly Cloudy
2:00 PM 82.4 °F 87.2 °F 71.6 °F 70% 29.98 in 6.2 mi NNE 8.1 mph - N/A   Scattered Clouds
3:00 PM 82 °F - 72 °F 65% 29.98 in 12 mi NE 11.5 mph - -   Haze
3:00 PM 82.4 °F 87.2 °F 71.6 °F 70% 29.98 in 6.2 mi NE 11.5 mph - N/A   Scattered Clouds
4:00 PM 80.6 °F 84.6 °F 71.6 °F 74% 30.01 in 6.2 mi NE 11.5 mph - N/A   Mostly Cloudy
5:00 PM 78.8 °F - 71.6 °F 78% 30.01 in 6.2 mi NE 9.2 mph - N/A   Mostly Cloudy
6:00 PM 79 °F - 72 °F 73% 30.01 in 6 mi ENE 8.1 mph - -   Haze
6:00 PM 78.8 °F - 71.6 °F 78% 30.01 in 6.2 mi ENE 8.1 mph - N/A   Mostly Cloudy
7:00 PM 77.0 °F - 71.6 °F 83% 30.01 in 6.2 mi Variable 2.3 mph - N/A   Mostly Cloudy
8:00 PM 75.2 °F - 71.6 °F 89% 30.01 in 6.2 mi Calm Calm - N/A   Mostly Cloudy
9:00 PM 74 °F - 71 °F 89% 30.04 in 9 mi SE 2.3 mph - -   Haze
11:00 PM 73.4 °F - 71.6 °F 94% 30.01 in 6.2 mi Calm Calm - N/A   Mostly Cloudy